CAPE
86 119 1057 1271 1367 1236 1157 1535 2072 2286 2335 2401 2304 2062 1804 1439 1806 1980 2203 2779 3260 3509 3298 3270 3141 3022 2768 2696 2514 2528 2138 1973 1735 1476 1241 923 474 540 1346 1606 1420 934 507 820 1362 956 1377 1562 1587 2075 2062 2664 2741 2719 2958 3258 3312 3033 2869 2917 2879 2738 2576
310 143 672 1337 1345 1599 1887 2051 2294 2524 2407 2446 2428 2370 1987 1982 2190 2200 2423 2874 3280 3565 3350 3375 3362 3221 2916 2940 2654 2674 2657 2446 2513 2058 1813 1754 1557 1271 1340 1714 1500 1397 1204 712 1038 1340 1316 1604 1564 2046 2232 2639 2784 2773 2827 3245 3431 3188 2506 2826 3064 3100 2876
277 179 320 375 1002 800 941 1695 1863 2513 2469 2517 2619 2523 2200 2329 2265 2410 2613 2918 3405 3674 3628 3509 3601 3456 3123 3186 3035 3000 2756 2644 2624 2488 2098 1853 1994 1466 1538 1800 1665 1474 1474 971 1037 1253 1387 1789 2019 2057 2175 2513 2830 2768 2801 2952 3156 3214 2816 2659 2876 2855 3170
192 151 210 593 1175 808 1558 1596 1936 2522 2378 2480 2726 2644 2455 2552 2485 2662 2634 2973 3299 3639 3761 3670 3580 3259 3251 3180 3063 3223 3093 2834 2760 2573 2013 1726 2052 1852 1699 1745 2089 1748 1782 1627 1080 1017 1080 1712 2324 2333 2509 2345 2322 2270 2407 2363 2650 2952 2896 2819 2807 2560 2795
143 180 160 435 560 1426 1668 1594 1665 2648 2451 2408 2730 2766 2620 2600 2565 2450 2715 2959 3250 3527 3615 3512 3262 3152 3113 3091 2906 3023 3047 2980 2948 2632 2364 1990 2214 2336 1782 1706 2138 2115 1700 1905 1693 1473 1590 1972 2422 2598 2555 2434 2327 2252 2272 2541 2474 2694 2809 2911 2903 2495 2566
0 36 88 257 456 653 1952 1280 1808 1951 2426 2403 2561 2826 2710 2604 2610 2664 2694 2880 3203 3394 3558 3444 3146 3136 3220 3074 2805 2834 3091 3233 3146 3069 2804 2484 2244 2297 2045 1978 2192 2382 1806 1940 1965 1790 1982 2050 2202 2658 2553 2496 2083 1725 2137 2388 2448 2459 2817 2928 2866 2478 2176
0 0 26 183 383 532 1039 968 1022 1744 2393 2330 2467 2733 2656 2562 2601 2570 2650 2825 3101 3380 3372 3212 3081 3056 3213 3057 2813 3008 3143 2944 3364 3080 2792 2594 2248 2400 2574 2481 2379 2323 2183 2047 2163 1952 2138 2293 2494 2422 2470 2272 2098 1567 1856 2370 2453 2350 2441 2889 2976 2926 2706
0 0 0 90 338 531 701 1602 1903 1535 1322 2093 2255 2594 2635 2468 2229 2618 2733 2753 2962 3162 3252 3185 3020 3087 3213 3070 2798 2849 2995 3130 3343 3066 2830 2559 2382 2674 2722 2630 2527 2365 2463 1995 2246 2118 2106 2381 2257 2410 2673 2322 2187 1889 1744 2370 2466 2166 2148 2612 2938 3184 2744
0 0 0 5 217 380 513 464 742 1016 1481 1332 1844 2502 2470 2591 2563 2539 2612 2730 2855 2997 3182 3008 2872 2931 3176 3030 2875 2865 3116 3089 3176 3075 2653 2555 2428 2350 2397 2700 2718 2616 2651 2166 1954 2424 2270 2524 2495 2540 2921 2694 2272 2179 1986 2518 2400 2334 2257 2530 2830 3070 2649
0 0 0 0 69 236 401 684 1286 1777 1487 1873 2119 2439 2530 2421 2533 2633 2632 2647 2841 2840 2983 2812 2732 2721 3069 2913 2828 2845 2981 2976 3036 2839 2712 2381 2216 2222 2120 2197 2586 2722 2765 2575 1771 1953 2425 2324 2632 2770 3123 3124 2663 2574 2410 2353 2502 2812 2546 2382 2553 2930 3072
0 0 0 0 15 114 398 334 520 1698 1815 2568 2371 2229 2622 2544 2584 2506 2533 2617 2688 2713 2827 2737 2598 2535 2946 2807 2602 2609 2884 2744 2627 2645 2534 2264 2027 2007 2052 1880 1944 2370 2585 2623 2144 1762 2388 2698 2764 3065 3350 3296 3021 2991 2946 2716 2887 3022 2754 2455 2524 2806 2986
0 0 0 1 11 31 14 309 1030 2164 2889 2910 2137 2060 2483 2655 2514 2534 2524 2622 2657 2648 2636 2506 2477 2464 2801 2798 2628 2679 2636 2610 2286 2398 2579 2242 1997 1877 2002 1931 1823 1987 2442 2438 2310 1851 1743 2732 2864 2892 3461 3624 3444 3237 3379 3323 3342 3354 3133 2408 2334 2711 2927
0 0 0 4 56 62 301 1078 2638 2934 3236 2272 2120 1959 2240 2491 2544 2426 2563 2600 2509 2520 2524 2517 2386 2456 2709 2822 2506 2582 2448 2490 2216 2356 2530 2325 1942 1894 1955 1812 1768 1677 2062 2334 2298 2008 1701 2161 3097 2934 3323 3854 3759 3477 3631 3667 3579 3814 3723 2956 2375 2501 2840
0 89 0 11 60 130 279 1602 2409 2709 2769 2296 2231 2011 2022 2297 2341 2403 2532 2540 2540 2480 2440 2428 2267 2407 2638 2809 2644 2574 2428 2526 2393 2403 2506 2485 2510 2309 1947 1984 1788 1686 1752 2306 2369 2117 1825 1703 2712 3121 3233 3644 3824 3695 3705 3886 3862 3925 3975 3770 2893 2440 2666
21 12 253 433 805 1076 1504 973 2386 3005 2710 2603 2291 2046 1948 2134 2279 2323 2460 2558 2567 2439 2452 2480 2348 2419 2519 2883 2872 2873 2770 2992 2648 2492 2747 2725 3012 2764 2332 2294 2295 2104 1948 2450 2522 2245 1978 1752 1844 2878 2948 3065 3674 3678 3523 3660 3803 3708 3859 4109 3669 3028 2576
958 956 456 375 710 337 1025 1119 1986 2835 2958 3038 2440 2204 1926 2144 2396 2259 2365 2530 2262 2424 2375 2398 2502 2581 2603 2873 2952 3085 3252 3677 3366 3179 3128 3152 3491 3461 2810 2460 2522 2333 2368 2410 2582 2737 2397 2144 1852 2056 2914 2990 3324 3511 3428 3336 3538 3515 3296 3577 3938 3426 2740
1485 1602 1555 1677 2017 1948 2038 1030 1516 2515 3153 3174 2808 2368 2070 2152 2356 2307 2275 2490 2491 2467 2326 2054 2663 2578 2640 3014 3152 3322 3601 3769 3588 3619 3712 3832 3726 3633 3427 3282 2772 2768 3037 2882 2863 3247 3367 2708 1928 1776 2188 2829 2920 3130 3184 3116 2963 3054 3170 3317 3410 3591 3365
666 934 1188 1405 1585 2391 2784 2256 1790 1854 2771 3000 2752 2408 2134 2300 2279 2291 2214 2339 2426 2112 1970 2068 2511 2741 3036 3060 3399 3823 3838 3664 3834 3943 3951 3984 3928 3892 3774 3301 3079 3276 3123 2713 2811 3541 3249 2784 2501 2644 2164 2424 2783 2764 2916 3052 2514 2749 3061 3142 3270 3391 3710
543 467 616 778 1028 1312 2001 2002 1809 2198 1974 2679 2666 2283 2052 2115 2192 2425 2302 2410 2352 2323 2251 2170 2302 2868 3286 3156 3501 3897 4004 4000 3964 4082 4021 4036 4036 4017 3916 3828 3622 3242 3049 2600 3196 3155 3649 3538 2965 2898 2694 2422 2794 2721 2697 2799 2283 2553 2824 2951 3074 3126 3302
261 279 335 450 631 908 1251 1970 2645 3149 3362 2723 2531 2599 2054 2139 2157 2375 2254 2224 2407 2402 2503 2646 2737 2893 3202 3488 3868 4092 4071 4185 4128 4181 4281 4222 4237 4289 4139 3878 3756 3471 3303 3078 3437 3677 3710 3472 3306 3210 3406 3010 2902 3194 2728 2833 2307 2415 2649 2784 2818 2857 3030
10 16 102 243 396 574 979 1652 2389 2801 2920 2658 2423 2227 2469 1973 2051 2329 2247 2125 2193 2487 3214 2797 3127 3332 3337 3627 3865 4096 4289 4264 4154 4333 4475 4529 4367 4474 4345 4108 3954 3826 3583 3425 3496 3808 3984 3764 3495 3443 3438 3200 2947 3098 2946 2704 2566 2527 2510 2580 2628 2645 2602
0 0 2 40 129 293 604 1284 2100 2509 2638 2796 2885 1514 2112 1634 1862 2004 2154 2058 2354 2457 2565 3097 3510 3234 3438 3607 3888 4160 4234 4339 4367 4469 4661 4716 4656 4618 4625 4398 4395 4207 3922 3565 3370 3691 4002 4009 3554 3571 3679 3526 3181 2977 3026 2925 2467 2557 2593 2592 2498 2469 2369
0 0 0 0 0 15 430 1240 1895 2305 2789 2843 2522 1941 1478 2110 1841 1695 2069 2110 2169 2671 2571 2732 3198 3292 3624 3764 3888 4122 4275 4277 4422 4596 4771 4777 4667 4698 4585 4566 4558 4332 4052 3758 3386 3381 3681 3982 3588 3644 3710 3739 3670 3238 2790 3035 2645 2440 2610 2608 2581 2443 2391
406 409 402 0 0 0 306 1185 1838 2203 2311 2913 2400 1693 1244 1910 1992 1941 2364 2052 2295 2501 2261 2690 3027 3341 3739 3673 3870 4107 4367 4454 4452 4682 4856 4828 4791 4744 4599 4565 4480 4374 4188 3899 3309 2976 3318 3772 3764 3483 3504 3615 3794 3511 3336 3119 4412 2482 2475 2563 2544 2480 2828
0 322 223 464 532 377 205 955 1846 2282 2227 2377 2692 1532 1150 1722 1990 2040 2482 2426 2335 2636 2777 2862 3070 3405 3806 3827 3940 4281 4510 4481 4612 4709 4736 4865 4774 4506 4542 4442 4552 4313 4203 3879 3331 2882 3052 3291 3538 3572 3416 3288 3597 3704 3475 3128 3436 2690 2538 2452 2440 2420 3098
0 0 0 289 620 686 951 1362 1618 2401 2700 2532 2476 1540 1090 1687 2272 2378 2411 2425 2471 2649 2816 2972 3193 3538 3959 3977 3991 4359 4666 4565 4684 4708 4881 5055 4886 4713 4900 4700 4576 4522 4286 3817 3424 3168 2776 2760 3168 3450 3330 3219 3196 3541 3479 3234 3156 2680 2738 2688 2520 2388 3060
265 376 426 510 732 936 1440 1428 1786 2374 2430 2718 2195 1412 1090 1839 2280 2482 2930 2752 2780 2826 2909 3045 3359 3795 4216 4165 3988 4309 4679 4676 4814 4877 4871 5014 4886 4559 4562 4391 4236 4186 4180 3886 3276 3084 3032 2608 2718 2911 3116 2992 2964 3038 3332 3246 3679 3144 2779 2805 2726 2524 2485
482 810 806 843 949 1010 1351 1594 1942 2559 2381 2518 1873 1669 1886 2412 2789 3361 3398 2829 2799 3004 2848 3123 3528 3761 4192 4224 4091 4298 4596 4554 4697 4738 4784 4877 4815 4660 4480 4244 4138 4119 4115 3707 3551 3602 3414 3176 2857 2715 2904 2907 2933 3122 3198 3348 3359 3934 3133 2924 2870 2782 2604
509 734 840 846 962 1027 1413 1754 2135 2451 3363 1951 1740 1890 1964 1676 3035 3087 3353 3069 3292 3034 3162 3232 3547 3954 4303 4369 4114 4332 4503 4590 4728 4723 4664 4666 4686 4598 4349 4276 4100 4055 4280 4159 3919 3790 3511 3802 3401 3177 3019 2927 3206 3074 3452 3968 4183 4051 3448 3187 3099 3050 2888
707 778 974 1108 1190 1334 1327 1920 2156 2656 3211 3605 2339 2053 1990 2414 3613 3425 3151 3411 3650 3077 3292 3504 3901 4218 4316 4295 4114 4284 4480 4513 4491 4624 4701 4710 4638 4539 4350 4309 4184 4165 4249 4217 4037 3868 3932 4048 3979 3795 3432 3224 3157 3007 3262 3879 4259 3976 3333 3372 3320 3249 3122
983 1221 1143 1316 1367 1296 1720 2064 2430 2485 3260 3284 2689 2048 2431 2663 3248 3680 3460 3594 3994 4141 3604 3828 4085 4183 4373 4195 4108 4228 4472 4484 4652 4601 4569 4519 4485 4499 4387 4256 4113 4157 4247 4416 4189 4077 4043 4130 4063 4083 3813 3496 3388 3436 3368 3650 4352 4797 3722 3646 3497 3310 3250
1106 1288 1467 1530 1603 1522 1847 2242 2226 2613 3033 3605 2779 2569 3431 2928 3016 3617 3651 3712 4128 4018 4248 4199 4471 4426 4579 4477 4261 4361 4394 4446 4412 4436 4374 4525 4528 4595 4550 4366 4084 4171 4326 4333 4229 4151 4169 4097 3928 3976 4020 3913 3876 3753 3709 4076 4135 4616 4706 3839 3731 3644 3505
1451 1478 1646 1871 1694 1611 2148 2185 2544 2845 3470 3560 3093 2516 2232 2899 3556 3916 4229 4295 3926 3821 4352 4486 4572 4597 4697 4522 4302 4443 4482 4518 4467 4477 4431 4592 4377 4394 4341 4249 4101 4144 4365 4218 4138 4211 4083 3939 3852 3849 3782 3922 3915 4015 4231 4045 4310 4455 4534 4117 4016 3950 3902
1424 1488 1892 1999 1785 1746 2074 2309 2507 2671 3199 3734 3198 4272 3035 3287 3645 4112 4343 4398 3964 3820 4327 4756 4699 4675 4830 4409 4295 4335 4488 4626 4672 4557 4369 4426 4218 4311 4209 4171 4131 4127 4194 4198 4021 4055 4043 3897 3858 3582 3800 3858 3954 4187 4239 4253 4478 4603 4845 4538 4199 4138 4156
1394 1868 2048 1930 1944 1964 2044 2057 2199 2414 3071 3287 3603 4570 4992 4660 4074 4416 4489 4513 4331 4547 4836 5030 4984 4788 4999 4420 4444 4247 4484 4473 4463 4454 4372 4319 4214 4640 6051 6169 4293 4206 3968 3931 4075 4153 4242 4098 3739 3988 4041 4061 4337 4704 4565 4598 4543 4893 4797 5686 4385 4341 4272
1342 1603 1913 1933 2017 1969 2039 2115 2281 2492 2899 3299 3428 3766 4005 4565 4965 4669 4110 4213 4120 4716 5040 5244 4962 5033 4981 4693 4445 4331 4289 4222 4257 4299 4396 4313 3965 3758 3859 3818 3751 3817 4532 4308 3945 4131 3786 3964 5974 6150 4209 4715 4621 4784 5147 5106 5926 4660 4630 4527 4258 4401 4482
1278 1413 1780 1922 2009 2011 2105 2129 2183 2068 2542 3062 3488 3656 3352 3322 3914 4187 3700 3696 4196 4627 5023 5143 4786 4701 4736 4549 4265 4278 4264 4130 4488 4432 4622 4505 4301 3753 3775 3787 3714 3718 3841 3664 3734 3844 3650 3525 3746 4131 4750 5957 4640 3994 3675 4599 4513 4637 4664 4399 4276 4301 4292
1110 1414 1642 1658 1608 1935 1963 1962 1904 1920 2120 2453 2725 3053 3272 3127 3354 3775 3523 3957 4202 4331 4631 4749 4479 4345 4353 4357 4236 4869 4941 4504 4526 4575 4696 4674 4952 4156 3975 3770 3729 3686 3812 3974 4028 3874 3904 3667 3762 4039 4378 4613 4456 3968 3730 4091 4218 4152 4207 4256 4295 4246 4214
Wind_Speed
nan 22 31 22 19 19 14 11 13 16 18 18 18 19 19 17 15 14 15 17 16 16 15 15 15 14 13 13 12 14 13 11 11 9 9 10 11 11 11 11 10 10 9 8 7 6 4 3 2 3 2 1 2 2 2 2 2 3 3 3 4 5 4
24 22 29 28 21 18 16 15 14 15 15 17 17 19 18 19 17 14 13 15 16 17 16 16 15 15 14 15 16 14 13 11 11 11 10 11 11 11 11 11 11 10 11 10 8 5 4 1 1 1 2 1 2 2 2 2 3 4 4 4 4 4 4
26 22 22 26 24 18 20 17 15 14 15 16 17 18 19 18 18 17 14 15 15 16 17 16 16 17 17 17 17 16 14 13 11 9 8 8 7 8 10 11 11 11 10 9 9 6 4 2 0 0 2 3 4 4 5 6 7 8 8 8 8 8 8
28 25 26 29 26 21 23 21 15 16 15 15 18 19 19 19 19 17 15 15 16 16 15 16 17 18 18 18 18 18 16 13 11 10 8 9 9 10 11 10 11 11 10 8 8 8 5 3 0 2 3 5 7 8 10 11 11 10 11 10 9 9 9
29 28 30 30 29 25 24 21 13 15 15 15 18 19 19 20 19 18 16 15 16 16 16 17 19 20 21 20 21 20 18 15 13 11 11 11 11 11 10 9 10 9 10 9 8 9 8 5 3 4 5 7 9 10 10 10 10 9 8 8 7 7 7
nan nan nan 31 29 25 26 25 14 12 14 15 17 19 19 20 18 19 18 16 15 16 19 20 20 21 20 20 21 21 20 18 15 13 13 13 13 12 10 10 10 9 9 9 9 8 7 6 4 5 6 7 9 9 9 8 7 6 6 5 5 4 4
nan nan nan 29 31 28 26 28 21 14 13 14 15 18 19 19 19 18 17 17 17 17 18 19 19 20 21 23 22 22 20 18 16 14 14 14 13 13 12 12 12 11 11 11 9 9 8 7 6 7 7 7 8 8 6 5 5 4 3 3 3 3 3
nan nan nan nan 29 30 24 26 25 22 14 15 16 19 20 19 18 19 18 18 18 17 17 18 20 21 22 24 23 22 21 19 18 17 17 14 14 13 13 12 12 12 12 10 10 9 8 7 8 9 8 8 7 7 5 3 3 3 2 2 2 3 2
nan nan nan nan 28 30 24 24 24 23 20 17 16 19 21 21 20 19 20 19 18 18 17 18 19 21 23 24 25 23 23 22 20 18 16 14 15 12 12 13 12 12 11 10 10 10 10 9 8 10 10 10 10 8 6 4 1 1 1 2 3 3 3
nan nan nan nan nan 28 31 25 26 27 22 21 21 20 21 21 20 20 20 19 19 19 19 17 17 20 23 24 24 25 26 23 21 18 16 14 14 12 12 13 13 13 12 11 11 11 12 11 9 10 11 11 11 9 8 6 3 1 1 2 3 3 3
nan nan nan nan nan 27 29 25 27 28 27 24 24 22 22 22 22 21 21 20 19 19 19 18 18 19 21 22 24 25 26 24 22 19 16 14 15 13 13 12 13 14 12 13 12 12 13 13 12 11 11 12 12 11 9 7 5 3 2 3 3 3 4
nan nan nan nan nan nan nan 27 32 25 27 28 24 24 25 24 23 23 22 21 20 20 20 20 19 19 20 23 24 25 25 25 22 19 17 15 14 14 14 14 13 14 15 13 12 13 14 14 13 13 12 13 14 13 11 9 6 4 3 4 4 5 4
nan nan nan nan nan nan 26 33 38 32 30 27 24 25 25 24 25 24 23 22 21 21 21 20 20 19 21 22 23 25 24 25 23 21 19 18 16 17 17 15 14 14 15 15 14 13 14 15 14 14 14 14 15 14 12 10 7 6 5 4 5 6 6
nan nan nan nan nan 36 33 39 41 33 30 27 27 26 25 24 24 24 24 23 23 23 22 20 20 20 21 22 23 24 23 24 25 24 23 22 21 20 18 16 15 15 16 17 14 14 14 15 16 15 15 15 15 15 14 10 7 6 7 7 6 6 7
nan nan 38 39 40 39 40 39 37 33 30 29 28 26 25 25 25 26 25 24 24 24 23 22 21 20 21 22 22 23 24 26 26 26 26 25 24 22 21 19 18 18 18 19 16 16 15 15 17 16 14 14 15 14 13 10 8 8 9 10 8 6 7
55 58 57 53 54 48 42 39 37 35 32 31 29 27 25 27 27 25 26 26 25 24 25 24 22 20 20 22 22 23 25 28 28 28 27 28 26 25 23 22 21 19 18 19 18 17 17 18 18 16 16 15 14 13 13 10 10 11 14 13 9 9 7
56 57 56 55 56 58 56 46 41 37 34 33 31 27 25 27 26 25 25 27 26 25 27 27 25 21 21 21 22 24 25 27 28 28 28 29 28 27 25 24 23 21 21 20 20 18 18 18 17 16 17 15 14 12 12 11 11 16 17 16 11 9 9
57 58 58 56 55 56 55 51 45 38 34 31 28 26 24 26 24 24 25 27 26 26 27 28 26 23 21 22 23 24 25 26 28 28 28 29 29 28 27 26 25 23 22 20 20 21 18 17 17 18 18 17 14 13 12 12 13 21 20 18 14 10 9
59 59 58 56 55 54 55 55 50 46 36 31 30 28 23 22 21 22 23 26 26 27 28 29 28 25 22 22 23 23 25 26 27 27 28 28 28 29 29 28 26 24 22 21 22 22 20 18 18 19 19 18 16 14 14 13 19 23 23 20 17 13 9
60 59 57 56 55 56 57 55 53 51 48 42 31 26 24 23 21 20 20 24 27 27 29 30 29 27 24 22 22 22 24 26 27 27 27 27 28 30 29 28 26 25 25 24 23 23 21 18 19 20 20 20 19 18 17 15 25 24 24 21 19 16 11
nan nan 59 57 56 57 57 54 50 47 44 41 36 28 27 26 23 22 22 24 26 27 29 30 30 29 26 23 22 22 23 25 26 27 28 28 27 28 28 28 28 26 27 25 24 23 22 20 20 20 20 20 20 20 19 17 28 26 26 23 21 18 14
nan nan nan nan 58 57 56 55 53 50 46 43 39 32 30 27 24 23 21 21 23 25 27 29 29 29 27 24 22 22 23 25 25 26 27 28 27 26 27 28 28 27 28 27 25 24 24 23 22 21 21 21 20 20 20 22 30 27 27 25 22 21 15
nan nan nan nan nan nan 56 54 51 49 46 41 37 34 30 27 26 25 23 21 23 25 26 27 28 27 27 24 23 23 25 26 24 24 26 28 27 26 26 26 27 27 29 28 26 25 24 24 23 23 23 22 21 19 21 21 29 29 27 26 24 23 16
60 62 64 nan nan nan 58 56 54 52 49 45 38 33 30 29 29 30 29 25 24 24 26 26 25 24 25 25 24 24 26 26 24 23 25 26 27 27 26 26 27 27 27 27 26 25 24 24 24 23 23 22 21 21 22 21 30 30 29 26 27 23 18
nan 62 65 65 64 62 60 59 58 54 49 44 39 33 31 32 31 31 31 30 27 26 25 24 24 22 23 24 24 25 27 27 25 22 23 24 25 27 27 27 27 26 27 26 25 24 25 25 25 23 22 21 20 23 21 20 28 30 30 28 27 22 19
nan nan nan 67 66 64 62 58 54 50 46 42 38 35 32 34 36 34 34 32 30 28 25 23 22 21 23 25 25 25 27 27 25 22 22 23 24 26 27 28 28 27 26 26 26 25 23 24 23 22 21 21 20 22 20 20 25 29 29 28 26 23 20
58 59 61 65 66 67 61 58 54 50 48 45 41 37 35 37 38 37 38 35 32 28 24 23 24 24 25 25 25 26 27 28 27 24 22 23 23 24 26 27 27 27 26 25 25 25 24 22 22 21 20 19 20 19 20 21 20 27 27 27 26 23 21
60 60 61 63 66 66 64 60 58 56 48 45 41 38 37 39 39 40 38 34 30 28 27 28 27 25 26 25 25 27 28 28 28 25 23 23 23 23 24 26 26 27 25 24 25 23 23 22 21 20 20 18 19 19 19 21 18 26 23 25 24 24 21
60 61 60 62 65 66 63 59 56 55 51 46 40 38 37 37 39 38 36 30 29 32 33 32 29 27 27 27 27 27 29 29 30 28 24 24 24 23 24 25 25 26 25 24 24 23 23 23 22 20 19 19 19 19 19 21 22 25 25 22 23 23 21
56 57 58 59 59 60 61 56 53 51 45 44 40 39 38 41 42 38 34 30 35 37 36 34 31 29 28 28 28 29 29 30 30 28 25 25 25 24 24 24 24 26 25 25 25 24 24 23 22 20 18 17 17 17 18 19 20 24 26 23 21 22 21
55 56 57 57 58 58 56 53 50 47 42 44 38 40 40 42 42 40 35 36 39 40 38 35 33 30 30 30 30 30 30 30 29 27 26 25 25 24 24 24 24 24 25 25 24 23 23 22 21 19 17 17 16 16 17 17 16 18 23 25 23 21 21
52 53 53 53 55 57 57 54 51 44 40 46 38 38 39 38 38 40 41 40 40 40 40 38 36 33 32 33 32 30 30 29 28 27 26 26 24 23 22 23 23 23 24 24 23 21 20 20 19 18 17 16 15 15 15 17 17 17 22 23 23 22 21
52 52 51 52 53 54 52 51 49 47 42 42 37 34 35 36 39 44 44 42 42 41 43 41 39 36 34 34 32 30 29 29 28 27 26 24 23 23 22 22 22 22 22 21 21 19 19 18 18 17 16 15 14 16 17 17 17 16 19 25 25 25 25
55 53 50 48 47 50 48 49 50 49 40 42 45 44 35 33 35 38 41 42 41 42 45 43 39 36 35 33 32 29 28 27 30 27 25 23 22 23 22 22 20 20 20 19 19 19 18 18 17 16 15 15 17 17 17 17 16 16 17 22 24 23 25
55 52 50 51 51 51 48 47 47 44 39 39 39 41 42 38 34 34 36 41 41 45 45 44 39 36 35 33 31 28 28 27 27 24 23 24 22 26 29 25 21 20 20 19 21 19 18 18 19 18 16 17 19 20 18 17 15 16 17 20 23 21 21
56 54 53 51 47 47 47 46 45 43 42 39 38 40 42 44 41 38 38 40 42 45 46 43 38 33 32 30 28 28 27 25 26 24 24 24 26 33 33 39 42 39 28 26 36 39 37 33 23 21 19 19 21 24 18 15 18 25 20 24 26 23 23
57 57 56 54 51 51 51 50 49 45 47 44 41 41 41 41 42 41 41 41 44 45 45 41 36 32 30 29 28 29 29 27 27 25 24 24 28 30 33 33 39 44 45 41 37 39 40 41 39 37 35 23 24 29 35 32 32 30 29 27 26 25 25
57 57 56 53 50 50 52 52 50 47 47 46 45 46 46 49 49 48 45 45 45 45 43 38 35 31 31 30 30 33 33 29 29 27 25 26 27 31 30 32 33 36 44 45 43 43 43 43 43 41 39 34 30 29 28 30 30 33 33 33 32 29 28
Wind_Direction
nan 271 272 271 269 275 285 291 305 296 305 313 322 329 326 319 310 285 267 265 269 266 262 256 256 248 250 237 235 234 232 228 224 219 208 197 190 186 177 169 164 162 160 161 160 148 160 142 147 111 140 112 116 127 134 119 110 110 104 108 114 122 112
261 260 268 270 274 278 279 280 289 291 300 311 318 325 324 329 319 307 279 268 269 271 269 259 255 250 248 241 235 237 240 235 229 221 215 205 198 194 186 180 175 175 173 169 174 172 173 161 123 116 109 85 85 110 108 109 101 97 99 90 90 93 91
260 259 264 278 277 277 280 271 280 291 301 307 315 319 325 328 327 321 297 275 267 262 262 261 256 249 245 242 241 242 243 240 234 233 230 216 212 201 198 191 184 183 182 171 169 182 187 178 150 114 84 100 96 104 105 98 97 95 94 89 85 84 85
257 259 265 273 273 270 270 268 283 292 297 309 316 321 325 326 327 321 309 291 276 264 266 263 258 252 246 245 244 244 245 244 240 232 227 218 217 210 205 201 196 190 194 182 175 178 192 194 208 134 103 118 115 112 107 103 98 94 90 85 85 81 80
255 258 259 262 268 260 256 258 258 282 295 307 313 315 317 321 325 322 319 307 290 277 267 263 250 246 238 243 236 238 244 247 239 230 224 218 219 218 211 210 208 199 201 197 188 189 189 210 175 151 141 132 125 125 112 105 100 94 87 77 79 74 67
nan nan nan 258 265 262 257 258 255 273 285 302 310 310 310 318 320 328 326 317 303 280 261 255 252 246 243 244 238 239 243 243 237 232 228 226 225 223 221 214 212 212 208 207 201 196 194 199 172 162 150 144 134 126 117 109 99 83 74 69 72 71 66
nan nan nan 256 262 263 262 261 246 231 263 283 294 296 299 308 319 322 320 321 317 301 284 274 265 258 246 243 240 243 247 249 244 243 233 234 233 227 224 219 213 213 211 218 206 205 205 192 180 178 169 157 151 134 136 123 104 93 69 58 48 56 56
nan nan nan nan 260 266 259 260 265 263 254 263 278 288 298 304 309 316 322 321 320 315 301 286 271 261 255 249 246 249 249 250 245 240 236 237 238 234 232 227 221 216 217 217 218 210 214 204 185 187 187 174 171 162 151 154 122 70 46 26 19 19 357
nan nan nan nan 256 264 263 259 264 261 254 262 279 285 294 298 305 310 320 320 316 321 320 301 282 268 259 255 253 253 250 248 245 243 245 246 241 240 239 235 228 221 219 216 218 216 213 222 197 198 198 186 189 192 182 197 189 114 41 351 1 4 4
nan nan nan nan nan 253 258 256 253 247 249 259 265 276 285 289 296 304 306 310 312 324 323 311 288 271 264 261 260 260 255 251 247 249 248 248 241 246 244 239 234 228 223 222 214 219 219 219 214 207 205 196 198 204 205 219 226 245 7 355 349 346 349
nan nan nan nan nan 252 257 257 252 245 250 254 266 273 276 281 287 294 298 302 309 313 313 307 296 283 272 266 266 263 258 258 254 250 249 248 243 252 250 243 239 233 230 229 219 221 229 223 219 215 213 204 204 211 216 227 241 270 333 334 328 333 334
nan nan nan nan nan nan nan 254 256 252 254 258 268 270 270 274 282 287 291 300 301 302 302 304 301 296 281 269 266 263 266 260 257 256 255 251 247 251 252 247 243 244 239 234 230 224 232 235 225 220 221 211 208 213 220 226 241 272 307 330 326 314 317
nan nan nan nan nan nan 232 240 255 250 254 262 265 266 267 274 278 281 281 290 292 289 295 299 301 298 291 280 272 265 266 264 260 254 253 250 246 243 246 248 249 250 249 244 240 237 234 243 237 226 225 221 213 217 223 227 242 263 294 309 308 303 307
nan nan nan nan nan 214 221 235 247 247 252 257 258 260 262 266 270 273 277 282 283 285 289 289 298 301 295 285 275 268 270 265 260 254 248 246 240 240 245 248 246 247 248 250 250 246 245 247 249 239 233 230 221 221 225 231 244 272 291 298 297 294 304
nan nan 230 225 220 217 218 228 236 246 248 251 256 257 260 260 262 262 264 269 274 280 288 288 291 298 297 290 284 273 267 260 258 252 249 246 243 241 243 246 245 243 246 251 252 245 247 245 251 251 245 240 232 227 228 235 249 268 287 293 299 296 309
214 212 217 217 214 213 218 221 228 233 237 241 248 250 254 256 258 264 268 271 277 278 283 283 288 293 299 298 291 278 267 259 256 254 252 248 246 244 244 246 248 247 248 253 257 251 244 244 246 254 255 249 244 234 230 234 244 268 300 298 290 303 304
211 211 212 212 210 206 209 214 218 223 227 233 238 242 244 250 255 260 267 270 276 279 283 288 288 295 302 300 293 282 271 261 260 259 256 251 248 247 246 246 249 248 248 251 258 256 252 248 252 251 256 257 250 245 235 238 246 285 295 304 312 304 309
207 209 208 208 208 207 206 210 213 218 223 231 239 240 241 242 251 255 260 266 273 278 282 286 289 294 295 296 290 286 281 269 263 262 260 255 252 251 250 249 251 251 252 255 261 257 258 259 254 248 250 253 255 251 244 242 260 285 298 306 315 311 303
208 210 208 206 207 207 205 207 205 208 215 226 232 238 242 246 248 251 256 263 268 271 278 283 287 287 287 291 293 292 286 276 270 267 265 261 256 253 252 252 253 257 260 263 260 260 259 259 258 254 248 248 253 252 252 246 268 285 299 307 313 320 308
207 207 207 206 205 205 205 205 205 204 203 208 226 235 239 244 245 245 250 256 259 264 266 272 278 281 285 285 290 291 289 283 277 273 271 267 261 256 256 258 258 261 262 261 261 262 263 264 263 255 251 246 246 248 248 246 267 287 296 303 310 314 307
nan nan 204 205 205 204 203 202 202 204 204 207 211 229 239 244 245 241 242 247 255 258 256 264 271 275 281 282 286 289 289 286 281 277 274 273 269 263 261 260 259 263 263 265 267 267 265 265 263 258 256 253 247 247 250 246 272 286 294 299 307 309 304
nan nan nan nan 203 203 202 200 201 203 206 208 209 220 240 243 250 251 252 255 261 261 261 261 264 272 278 280 286 292 293 290 283 279 276 277 276 273 268 264 262 264 263 263 266 266 265 263 261 263 261 258 254 249 251 249 272 283 290 296 302 302 286
nan nan nan nan nan nan 200 199 200 203 207 211 212 217 238 247 252 255 254 255 258 260 263 263 263 270 277 283 289 293 292 291 288 283 280 279 280 279 276 270 267 264 261 264 266 269 269 267 265 261 262 263 258 255 252 250 265 279 286 290 296 284 281
203 202 203 nan nan nan 200 200 202 205 207 207 214 216 230 246 251 257 257 258 261 264 263 266 269 271 276 283 289 291 291 290 291 288 283 281 282 280 276 274 268 267 264 266 266 267 268 266 263 263 264 267 265 263 258 252 264 280 283 288 291 289 284
nan 202 202 203 203 202 200 201 200 202 206 207 210 221 226 242 251 257 259 263 266 265 264 268 270 272 278 284 287 288 288 290 293 291 287 284 283 279 277 275 272 268 265 264 262 262 262 264 265 266 266 269 270 266 266 255 262 280 282 288 291 287 277
nan nan nan 202 203 203 202 200 200 203 210 213 216 223 232 244 250 254 257 264 267 267 265 268 269 269 272 274 278 282 284 287 291 293 289 286 281 275 272 269 268 270 268 265 263 262 261 266 267 271 269 268 269 264 267 260 254 272 286 288 290 295 278
202 203 202 202 203 203 204 204 203 207 212 218 221 225 233 244 251 254 254 259 263 266 267 265 260 259 262 268 276 282 286 286 292 295 290 284 280 276 271 267 266 268 268 268 265 263 263 269 270 271 269 267 266 261 263 259 257 268 288 289 292 297 286
199 199 201 202 202 204 206 204 204 203 213 220 224 230 233 241 246 248 251 255 260 264 262 257 255 256 260 268 276 281 285 288 288 289 282 282 280 277 272 266 265 265 268 267 265 266 267 265 265 267 266 263 263 256 254 260 269 259 283 289 292 293 297
199 198 198 200 200 200 203 204 203 205 211 221 227 233 234 244 248 249 250 249 249 254 254 254 254 256 260 267 274 277 284 284 287 283 277 280 284 283 277 269 265 265 265 264 264 267 267 265 263 263 261 256 252 250 249 250 260 270 270 285 290 295 298
198 197 198 198 200 201 201 202 204 206 216 219 228 237 236 242 245 245 245 241 239 245 249 250 251 252 257 262 268 275 280 282 283 280 277 281 280 279 276 272 265 262 262 263 262 263 263 262 262 257 253 252 249 247 250 252 251 266 279 278 292 291 300
195 195 195 196 197 199 201 203 201 205 217 219 229 239 238 240 243 242 242 236 237 241 246 249 249 249 253 260 267 271 275 276 276 277 275 276 277 276 274 273 269 263 260 261 262 261 262 262 261 256 250 246 248 249 250 253 254 251 270 287 289 293 297
194 195 194 194 197 198 199 199 197 202 223 214 225 240 236 236 239 241 239 237 237 241 242 246 247 248 250 256 262 268 271 274 274 275 273 273 271 270 267 267 265 262 260 260 260 258 257 258 257 255 253 251 250 249 248 246 244 245 256 266 279 283 293
193 194 193 193 194 195 194 192 191 199 212 212 219 234 235 231 232 234 236 236 238 239 241 244 247 247 249 255 259 263 265 269 267 268 269 272 267 265 263 262 259 258 258 259 258 257 255 256 256 255 254 252 249 246 243 245 245 248 253 263 265 267 273
192 191 191 193 193 190 186 185 186 192 207 215 212 215 224 232 232 233 234 236 237 238 241 243 246 247 252 258 257 257 260 264 266 267 264 265 263 260 258 257 257 257 259 257 255 255 254 254 254 253 251 248 248 246 245 247 249 254 258 268 271 274 275
191 191 191 191 191 188 188 185 184 191 205 216 220 216 218 221 225 233 234 234 233 236 241 242 246 248 255 256 254 254 257 260 262 261 260 258 257 247 235 235 247 255 252 248 242 245 252 255 249 249 245 244 245 248 251 251 254 259 263 265 278 280 281
190 190 191 193 194 190 187 186 186 194 211 214 217 219 214 219 222 225 229 230 229 234 239 242 245 250 253 250 247 251 256 256 259 259 257 259 254 245 239 234 233 226 229 241 227 226 225 231 240 240 245 248 245 239 251 251 244 245 265 279 294 295 299
191 191 192 194 194 190 188 188 188 198 214 218 220 223 223 218 219 222 225 223 224 230 236 241 243 246 246 243 244 250 253 253 257 258 254 257 253 249 245 239 230 229 228 228 229 228 229 230 228 225 225 229 244 238 230 242 254 257 262 275 294 299 297
192 193 193 195 197 194 191 192 190 199 208 214 217 220 222 222 218 215 218 217 221 228 233 237 239 241 241 241 244 249 252 251 254 257 254 254 251 249 247 243 242 235 228 227 228 230 231 230 228 226 227 230 250 249 237 234 248 263 265 269 276 280 286